Location: Newark
(51.0089°N, 21.5817°E)
Time: 13:14:11
(UTC+00:00)

XW-2F - Pass Details

Date: 22 February 2020
Orbit: 503 x 521 km, 97.5° (Epoch: 01 April)

Event Time Altitude Azimuth Distance (km) Brightness Sun altitude
Rises 03:23:02 0° 34° (NNE) 2,630 ? -21.3°
Reaches altitude 10° 03:27:00 10° 76° (ENE) 1,741 ? -20.7°
Maximum altitude 03:27:40 10° 87° (E) 1,716 ? -20.6°
Drops below altitude 10° 03:28:21 10° 97° (E) 1,740 ? -20.5°
Sets 03:32:18 0° 140° (SE) 2,623 ? -19.8°
